星链-1615 (STARLINK-1615 )

导读 | 星芒AI

STARLINK-1615 是 SpaceX 星链计划中的一颗低轨通信卫星,属于第54组星链卫星。该卫星于2022年发射,运行在约550公里高度的近地轨道,旨在为全球用户提供高速互联网服务。星链项目通过部署大量卫星,构建覆盖全球的宽带网络,尤其服务于偏远地区。STARLINK-1615 采用先进推进和通信技术,具备自动避障能力,以确保运行安全。该卫星是实现星链全球网络覆盖目标的重要组成部分。

基本信息
目录编号:
46166
目录名称:
STARLINK-1615
国际标识:
2020-057BB
轨道中心:
EARTH
卫星名称:
星链-1615
卫星全名:
星链-1615 (STARLINK-1615 )
卫星状态:
已陨落 最后检测时间 2024-07-04
发射日期:
2020-08-18 UTC
国别 :
美国 (US)
星等 :
--
轨道信息
数据来源 国际轨道数据
星历时间: 2024-07-04T13:51:10+0800
轨道信息已过期486天
半长轴: 6561.566km
偏心率: 0.000373
轨道倾角: 53.027°
近地点辐角 205.056°
升交点赤经 142.012°
平近点角 260.408°
近地点: 180.983km
远地点: 185.879km
周期: 88.160分钟
每日圈数: 16.333962
详细信息
固有亮度:
5
最大亮度:
2.5
卫星平台:
Starlink V1.0
覆盖范围:
全球
运营商:
太空探索技术公司
运营商所在国:
美国
制造商(研发单位):
太空探索技术公司
制造商所在国:
美国
使用方式:
暂无
卫星简介
星链(Starlink)计划是由太空探索技术公司(SpaceX)提出的一个巨型低轨卫星互联网星座项目,计划在2019年至2024年间在太空搭建由约1.2万颗卫星组成的“星链”网络,其中1584颗将部署在地球上空550千米处的近地轨道,并从2020年开始工作。该卫星已陨落。